SCP
1 1 1 0 0 0 0 0 0 0 0 0 0 0 0 0 0 0 0 0 0 0
1 1 1 0 0 0 0 0 0 0 0 0 -0 0 0 0 0 0 0 0 0 0
1 0 0 0 0 0 0 0 0 0 0 -0 -0 0 0 0 0 0 0 0 0 0
1 0 0 0 0 0 0 0 0 0 0 -0 -0 0 0 0 0 0 0 0 0 0
1 0 0 0 0 0 0 0 0 0 -0 -0 0 0 0 0 0 0 0 0 0 0
1 0 0 0 0 0 0 0 0 0 0 0 0 0 0 0 0 0 0 0 0 0
0 0 0 0 0 0 0 0 0 0 0 0 0 0 0 0 0 0 0 0 0 0
0 0 0 0 0 0 0 0 0 0 0 0 0 0 0 0 0 0 0 0 0 0
0 0 0 0 0 0 0 0 0 0 0 0 0 0 0 0 0 0 0 0 0 0
0 0 0 0 0 0 0 0 0 0 -0 0 0 -0 0 0 0 0 0 0 0 0
0 0 0 0 0 0 0 0 0 0 0 0 0 0 0 0 0 0 0 0 0 0
0 0 0 0 0 0 0 0 0 0 0 -0 0 0 0 0 0 0 0 0 0 0
0 0 0 0 0 0 0 0 0 0 -0 -0 0 -0 -0 0 0 0 0 0 0 0
0 0 0 0 0 0 0 0 0 -0 -0 -0 -0 -0 -0 0 0 0 0 0 0 0
Wind_Speed_500mb
77 75 67 68 65 52 35 14 18 13 20 6 15 19 12 8 8 9 10 12 16 17
75 73 70 67 57 44 58 48 21 25 29 31 29 19 9 3 7 6 9 14 17 16
72 62 58 67 67 43 53 42 41 38 36 30 23 12 4 4 5 6 11 15 16 20
81 70 66 69 60 58 60 57 47 46 41 30 20 9 5 8 9 7 11 15 17 22
77 70 74 70 64 69 65 53 48 44 37 28 17 11 9 9 11 9 11 16 20 23
84 78 77 71 79 66 57 55 50 42 34 24 18 16 14 11 10 10 14 19 23 26
87 80 85 77 72 66 64 56 50 42 31 26 21 19 16 12 11 10 17 21 25 27
89 87 85 75 82 76 64 58 51 40 34 28 26 22 15 11 9 15 19 23 23 26
101 90 84 93 84 75 67 54 44 40 35 33 29 22 14 12 13 19 19 18 22 29
99 98 97 90 84 69 67 60 46 41 36 35 28 19 15 13 16 16 16 22 26 28
108 94 97 93 82 73 60 51 45 43 37 32 30 15 11 12 14 15 17 22 27 28
95 101 96 82 72 65 55 51 47 42 36 30 29 15 11 15 14 15 20 23 25 27
97 105 94 83 74 62 57 54 49 47 37 27 21 17 14 11 12 17 20 21 23 26
110 97 86 85 78 73 64 59 53 45 37 27 20 19 11 8 12 17 19 19 22 27
Wind_Direction_500mb
202 205 204 197 182 171 169 185 177 176 235 248 241 228 225 292 335 2 356 26 35 29
209 208 200 193 190 194 198 182 198 211 195 209 205 194 230 298 13 20 43 44 36 20
211 192 182 179 184 179 182 183 194 197 194 189 188 190 227 89 78 60 54 44 27 14
195 199 195 196 190 178 178 184 190 186 184 183 178 184 138 118 105 77 50 37 14 2
200 195 194 201 195 178 182 182 181 181 177 170 165 154 138 122 111 75 39 18 358 353
194 197 203 191 180 178 181 177 170 173 166 157 149 141 134 118 93 52 18 357 349 352
198 200 196 182 178 177 173 172 168 159 152 145 139 132 121 105 68 24 1 353 352 357
190 194 186 181 173 164 163 160 157 150 142 136 127 118 108 86 48 14 355 358 1 360
183 183 176 168 160 160 157 153 148 142 138 133 128 115 100 63 28 7 0 1 6 9
178 171 163 160 155 156 150 158 152 143 143 136 120 104 84 43 13 11 6 13 13 15
165 166 162 158 149 145 143 145 145 142 144 138 121 114 83 43 26 18 16 18 18 16
167 160 151 141 141 142 149 145 145 147 147 141 129 114 71 48 31 15 22 17 14 17
157 146 142 149 147 155 150 147 151 150 143 135 121 102 73 54 31 21 20 17 16 17
142 143 147 147 147 149 149 153 155 147 140 131 114 108 94 46 33 34 27 25 27 30
Wind_Speed_850mb
77 75 67 68 65 52 35 14 18 13 20 6 15 19 12 8 8 9 10 12 16 17
75 73 70 67 57 44 58 48 21 25 29 31 29 19 9 3 7 6 9 14 17 16
72 62 58 67 67 43 53 42 41 38 36 30 23 12 4 4 5 6 11 15 16 20
81 70 66 69 60 58 60 57 47 46 41 30 20 9 5 8 9 7 11 15 17 22
77 70 74 70 64 69 65 53 48 44 37 28 17 11 9 9 11 9 11 16 20 23
84 78 77 71 79 66 57 55 50 42 34 24 18 16 14 11 10 10 14 19 23 26
87 80 85 77 72 66 64 56 50 42 31 26 21 19 16 12 11 10 17 21 25 27
89 87 85 75 82 76 64 58 51 40 34 28 26 22 15 11 9 15 19 23 23 26
101 90 84 93 84 75 67 54 44 40 35 33 29 22 14 12 13 19 19 18 22 29
99 98 97 90 84 69 67 60 46 41 36 35 28 19 15 13 16 16 16 22 26 28
108 94 97 93 82 73 60 51 45 43 37 32 30 15 11 12 14 15 17 22 27 28
95 101 96 82 72 65 55 51 47 42 36 30 29 15 11 15 14 15 20 23 25 27
97 105 94 83 74 62 57 54 49 47 37 27 21 17 14 11 12 17 20 21 23 26
110 97 86 85 78 73 64 59 53 45 37 27 20 19 11 8 12 17 19 19 22 27
Wind_Direction_850mb
202 205 204 197 182 171 169 185 177 176 235 248 241 228 225 292 335 2 356 26 35 29
209 208 200 193 190 194 198 182 198 211 195 209 205 194 230 298 13 20 43 44 36 20
211 192 182 179 184 179 182 183 194 197 194 189 188 190 227 89 78 60 54 44 27 14
195 199 195 196 190 178 178 184 190 186 184 183 178 184 138 118 105 77 50 37 14 2
200 195 194 201 195 178 182 182 181 181 177 170 165 154 138 122 111 75 39 18 358 353
194 197 203 191 180 178 181 177 170 173 166 157 149 141 134 118 93 52 18 357 349 352
198 200 196 182 178 177 173 172 168 159 152 145 139 132 121 105 68 24 1 353 352 357
190 194 186 181 173 164 163 160 157 150 142 136 127 118 108 86 48 14 355 358 1 360
183 183 176 168 160 160 157 153 148 142 138 133 128 115 100 63 28 7 0 1 6 9
178 171 163 160 155 156 150 158 152 143 143 136 120 104 84 43 13 11 6 13 13 15
165 166 162 158 149 145 143 145 145 142 144 138 121 114 83 43 26 18 16 18 18 16
167 160 151 141 141 142 149 145 145 147 147 141 129 114 71 48 31 15 22 17 14 17
157 146 142 149 147 155 150 147 151 150 143 135 121 102 73 54 31 21 20 17 16 17
142 143 147 147 147 149 149 153 155 147 140 131 114 108 94 46 33 34 27 25 27 30